Location: Dompnac
(44.5644°N, 4.1026°E)
Time: 10:52:23
(UTC+00:00)

Cosmos 2026 Rocket - Pass Details

Date: 22 January 2021
Orbit: 940 x 1000 km, 82.9° (Epoch: 26 February)

Event Time Altitude Azimuth Distance (km) Brightness Sun altitude
Rises 20:20:15 0° 234° (SW) 3,612 7.5 -39.1°
Reaches altitude 10° 20:23:35 10° 252° (WSW) 2,680 6.8 -39.7°
Maximum altitude 20:27:42 18° 295° (WNW) 2,147 6.3 -40.4°
Drops below altitude 10° 20:31:53 10° 338° (NNW) 2,719 6.6 -41.1°
Sets 20:35:19 0° 356° (N) 3,683 7.2 -41.7°
